When you browse on this site, cookies collect data to enhance your experience and personalize the content and advertising you see.
Visit our Privacy Policy to learn more. By continuing to use the site, you agree to this use of cookies and data.
  • In Switzerland
  • List of Countries
  • For 7 days
  • Water Temperature
  • Satellite Maps
  • Weather Map
  • Weather Widgets
  • user-avatar
    Login

    Hourly Weather Pirna

    Today, 23 May, Thursday

    Time Temperature Precipitation Wind Pressure Humidity
    00:00 +9°C° 0.1 mm 5 mps 752 mmHg 93%
    01:00 +10°C° 0 mm 4 mps 752 mmHg 93%
    02:00 +10°C° 0 mm 4 mps 752 mmHg 93%
    03:00 +10°C° 0 mm 4 mps 752 mmHg 93%
    04:00 +9°C° 0 mm 3 mps 752 mmHg 93%
    05:00 +8°C° 0 mm 4 mps 753 mmHg 91%
    06:00 +10°C° 0 mm 4 mps 753 mmHg 89%
    07:00 +10°C° 0 mm 3 mps 753 mmHg 86%
    08:00 +12°C° 0 mm 4 mps 753 mmHg 77%
    09:00 +13°C° 0 mm 4 mps 753 mmHg 68%
    10:00 +15°C° 0 mm 4 mps 753 mmHg 59%
    11:00 +17°C° 0 mm 4 mps 753 mmHg 57%
    12:00 +17°C° 0 mm 4 mps 752 mmHg 55%
    13:00 +18°C° 0 mm 4 mps 752 mmHg 53%
    14:00 +18°C° 0 mm 4 mps 752 mmHg 53%
    15:00 +18°C° 0 mm 4 mps 752 mmHg 54%
    16:00 +19°C° 0 mm 4 mps 752 mmHg 54%
    17:00 +17°C° 0 mm 3 mps 751 mmHg 60%
    18:00 +16°C° 0 mm 2 mps 751 mmHg 65%
    19:00 +15°C° 0 mm 2 mps 751 mmHg 71%
    20:00 +14°C° 0 mm 1 mps 752 mmHg 73%
    21:00 +12°C° 0 mm 1 mps 752 mmHg 76%
    22:00 +11°C° 0 mm 1 mps 752 mmHg 78%
    23:00 +11°C° 0 mm 1 mps 752 mmHg 78%

    Tomorrow, 24 May, Friday

    Time Temperature Precipitation Wind Pressure Humidity
    00:00 +10°C° 0 mm 1 mps 752 mmHg 78%
    01:00 +9°C° 0 mm 0 mps 752 mmHg 78%
    02:00 +9°C° 0 mm 0 mps 752 mmHg 77%
    03:00 +9°C° 0 mm 0 mps 752 mmHg 77%
    04:00 +8°C° 0 mm 0 mps 751 mmHg 76%
    05:00 +10°C° 0 mm 0 mps 751 mmHg 72%
    06:00 +12°C° 0 mm 0 mps 751 mmHg 67%
    07:00 +14°C° 0 mm 0 mps 751 mmHg 63%
    08:00 +16°C° 0 mm 0 mps 751 mmHg 58%
    09:00 +18°C° 0 mm 0 mps 751 mmHg 53%
    10:00 +20°C° 0 mm 0 mps 751 mmHg 48%
    11:00 +20°C° 0 mm 0 mps 751 mmHg 47%
    12:00 +23°C° 0 mm 1 mps 750 mmHg 46%
    13:00 +24°C° 0 mm 1 mps 750 mmHg 45%
    14:00 +24°C° 0 mm 1 mps 750 mmHg 46%
    15:00 +24°C° 0 mm 1 mps 749 mmHg 47%
    16:00 +24°C° 0 mm 1 mps 749 mmHg 48%
    17:00 +22°C° 0 mm 1 mps 749 mmHg 55%
    18:00 +21°C° 0 mm 1 mps 748 mmHg 63%
    19:00 +20°C° 0 mm 1 mps 748 mmHg 70%
    20:00 +19°C° 0 mm 1 mps 748 mmHg 74%
    21:00 +18°C° 0 mm 1 mps 748 mmHg 77%
    22:00 +15°C° 0 mm 1 mps 749 mmHg 80%
    23:00 +15°C° 0 mm 1 mps 749 mmHg 81%

    Day after tomorrow, 25 May, Saturday

    Time Temperature Precipitation Wind Pressure Humidity
    00:00 +15°C° 0 mm 1 mps 749 mmHg 83%
    01:00 +15°C° 0 mm 1 mps 749 mmHg 84%
    02:00 +14°C° 0.1 mm 1 mps 749 mmHg 87%
    03:00 +14°C° 0.1 mm 1 mps 749 mmHg 90%
    04:00 +13°C° 0.1 mm 2 mps 749 mmHg 92%
    05:00 +14°C° 0 mm 2 mps 749 mmHg 91%
    06:00 +14°C° 0 mm 2 mps 749 mmHg 90%
    07:00 +13°C° 0 mm 3 mps 750 mmHg 89%
    08:00 +14°C° 0 mm 3 mps 750 mmHg 83%
    09:00 +16°C° 0 mm 3 mps 750 mmHg 77%
    10:00 +17°C° 0 mm 3 mps 750 mmHg 71%
    11:00 +18°C° 0 mm 3 mps 750 mmHg 68%
    12:00 +19°C° 0 mm 4 mps 750 mmHg 65%
    13:00 +20°C° 0 mm 4 mps 750 mmHg 62%
    14:00 +20°C° 0 mm 4 mps 750 mmHg 63%
    15:00 +20°C° 0 mm 4 mps 749 mmHg 64%
    16:00 +19°C° 0 mm 4 mps 749 mmHg 65%
    17:00 +18°C° 0 mm 4 mps 749 mmHg 70%
    18:00 +17°C° 0 mm 3 mps 749 mmHg 75%
    19:00 +16°C° 0 mm 3 mps 749 mmHg 81%
    20:00 +14°C° 0 mm 2 mps 750 mmHg 85%
    21:00 +13°C° 0 mm 2 mps 750 mmHg 89%
    22:00 +12°C° 0 mm 1 mps 750 mmHg 93%
    23:00 +10°C° 0 mm 2 mps 750 mmHg 93%

    26 May, Sunday

    Time Temperature Precipitation Wind Pressure Humidity
    00:00 +10°C° 0 mm 2 mps 750 mmHg 94%
    01:00 +9°C° 0 mm 2 mps 750 mmHg 94%
    02:00 +9°C° 0 mm 2 mps 750 mmHg 95%
    03:00 +9°C° 0 mm 2 mps 750 mmHg 95%
    04:00 +8°C° 0 mm 2 mps 750 mmHg 96%
    05:00 +10°C° 0 mm 2 mps 750 mmHg 91%
    06:00 +12°C° 0 mm 2 mps 750 mmHg 87%
    07:00 +14°C° 0 mm 2 mps 750 mmHg 82%
    08:00 +14°C° 0 mm 3 mps 750 mmHg 74%
    09:00 +17°C° 0 mm 3 mps 750 mmHg 67%
    10:00 +18°C° 0 mm 3 mps 749 mmHg 59%
    11:00 +19°C° 0 mm 4 mps 749 mmHg 57%
    12:00 +20°C° 0 mm 4 mps 749 mmHg 56%
    13:00 +21°C° 0 mm 5 mps 748 mmHg 54%
    14:00 +21°C° 0 mm 5 mps 748 mmHg 55%
    15:00 +21°C° 0 mm 5 mps 748 mmHg 56%
    16:00 +21°C° 0 mm 5 mps 748 mmHg 57%
    17:00 +20°C° 0 mm 4 mps 748 mmHg 64%
    18:00 +19°C° 0 mm 3 mps 747 mmHg 71%
    19:00 +18°C° 0 mm 2 mps 747 mmHg 77%
    20:00 +17°C° 0 mm 2 mps 748 mmHg 81%
    21:00 +15°C° 0 mm 1 mps 748 mmHg 85%
    22:00 +14°C° 0 mm 1 mps 748 mmHg 90%
    23:00 +14°C° 0 mm 1 mps 747 mmHg 90%

    27 May, Monday

    Time Temperature Precipitation Wind Pressure Humidity
    00:00 +14°C° 0 mm 1 mps 747 mmHg 90%
    01:00 +13°C° 0 mm 2 mps 747 mmHg 90%
    02:00 +13°C° 0 mm 2 mps 747 mmHg 89%
    03:00 +13°C° 0 mm 2 mps 746 mmHg 89%
    04:00 +12°C° 0 mm 3 mps 746 mmHg 89%
    05:00 +14°C° 0 mm 3 mps 746 mmHg 84%
    06:00 +16°C° 0 mm 3 mps 746 mmHg 80%
    07:00 +18°C° 0 mm 3 mps 745 mmHg 75%
    08:00 +19°C° 0 mm 3 mps 745 mmHg 69%
    09:00 +21°C° 0 mm 3 mps 745 mmHg 63%
    10:00 +24°C° 0 mm 3 mps 745 mmHg 57%
    11:00 +24°C° 0 mm 3 mps 744 mmHg 55%
    12:00 +25°C° 0 mm 3 mps 743 mmHg 54%
    13:00 +25°C° 0 mm 3 mps 743 mmHg 52%
    14:00 +26°C° 0.2 mm 3 mps 742 mmHg 52%
    15:00 +26°C° 0.2 mm 3 mps 742 mmHg 53%
    16:00 +26°C° 0.2 mm 2 mps 742 mmHg 54%
    17:00 +24°C° 0.3 mm 2 mps 741 mmHg 62%
    18:00 +23°C° 0.3 mm 1 mps 741 mmHg 70%
    19:00 +21°C° 0.3 mm 1 mps 741 mmHg 77%
    20:00 +20°C° 0.6 mm 1 mps 741 mmHg 82%
    21:00 +19°C° 0.6 mm 1 mps 741 mmHg 87%
    22:00 +18°C° 0.6 mm 1 mps 741 mmHg 91%
    23:00 +16°C° 0.4 mm 1 mps 741 mmHg 92%

    28 May, Tuesday

    Time Temperature Precipitation Wind Pressure Humidity
    00:00 +16°C° 0.4 mm 2 mps 740 mmHg 94%
    01:00 +16°C° 0.4 mm 2 mps 740 mmHg 95%
    02:00 +15°C° 0.1 mm 2 mps 740 mmHg 96%
    03:00 +15°C° 0.1 mm 2 mps 740 mmHg 96%
    04:00 +14°C° 0.1 mm 3 mps 740 mmHg 97%
    05:00 +14°C° 0.1 mm 3 mps 740 mmHg 96%
    06:00 +14°C° 0.1 mm 3 mps 741 mmHg 96%
    07:00 +14°C° 0.1 mm 3 mps 741 mmHg 95%
    08:00 +14°C° 0 mm 3 mps 741 mmHg 92%
    09:00 +16°C° 0 mm 3 mps 742 mmHg 88%
    10:00 +17°C° 0 mm 3 mps 742 mmHg 84%
    11:00 +18°C° 0.1 mm 3 mps 742 mmHg 78%
    12:00 +19°C° 0.1 mm 3 mps 742 mmHg 73%
    13:00 +20°C° 0.1 mm 2 mps 743 mmHg 67%
    14:00 +20°C° 0.3 mm 2 mps 743 mmHg 69%
    15:00 +20°C° 0.3 mm 2 mps 743 mmHg 71%
    16:00 +20°C° 0.3 mm 2 mps 743 mmHg 73%
    17:00 +20°C° 0.7 mm 1 mps 743 mmHg 78%
    18:00 +18°C° 0.7 mm 1 mps 743 mmHg 84%
    19:00 +15°C° 0.7 mm 0 mps 743 mmHg 90%
    20:00 +15°C° 0.5 mm 0 mps 744 mmHg 91%
    21:00 +15°C° 0.5 mm 0 mps 745 mmHg 92%
    22:00 +14°C° 0.5 mm 0 mps 745 mmHg 93%
    23:00 +14°C° 0.5 mm 0 mps 745 mmHg 94%
    Show more